This is the latest recevied weather packets stored in our database for station/object KC0RKM-13. If no packets are shown the sender has not sent any weather packets the latest 10 day(s).
| Time | Temp. | Humidity | Pressure | Rain* | Wind** | Luminosity | Snow |
|---|---|---|---|---|---|---|---|
| 1788229203 | 29.44° C | 50% | 1012.9 hPa | 0 mm | - | - | - |
| 1788228604 | 30° C | 50% | 1013 hPa | 0 mm | - | - | - |
| 1788228004 | 30° C | 50% | 1012.9 hPa | 0 mm | - | - | - |
| 1788227403 | 30.56° C | 49% | 1012.6 hPa | 0 mm | - | - | - |
| 1788226804 | 30.56° C | 50% | 1012.6 hPa | 0 mm | - | - | - |
| 1788226204 | 30.56° C | 49% | 1012.3 hPa | 0 mm | - | - | - |
| 1788225603 | 31.11° C | 48% | 1012.3 hPa | 0 mm | - | - | - |
| 1788225003 | 31.67° C | 47% | 1012.3 hPa | 0 mm | - | - | - |
| 1788224404 | 32.22° C | 47% | 1012 hPa | 0 mm | - | - | - |
| 1788223803 | 32.22° C | 46% | 1012.1 hPa | 0 mm | - | - | - |
| 1788223204 | 33.33° C | 44% | 1012 hPa | 0 mm | - | - | - |
| 1788222604 | 33.89° C | 42% | 1011.8 hPa | 0 mm | - | - | - |
| 1788222004 | 34.44° C | 40% | 1011.5 hPa | 0 mm | - | - | - |
| 1788221404 | 35° C | 39% | 1011.6 hPa | 0 mm | - | - | - |
| 1788220804 | 35° C | 37% | 1011.8 hPa | 0 mm | - | - | - |
| 1788220204 | 36.11° C | 37% | 1011.6 hPa | 0 mm | - | - | - |
| 1788219604 | 36.11° C | 36% | 1011.8 hPa | 0 mm | - | - | - |
| 1788219004 | 36.11° C | 36% | 1011.6 hPa | 0 mm | - | - | - |
| 1788218404 | 36.67° C | 35% | 1011.6 hPa | 0 mm | - | - | - |
| 1788217803 | 37.22° C | 35% | 1011.5 hPa | 0 mm | - | - | - |
| 1788217204 | 36.67° C | 34% | 1011.4 hPa | 0 mm | - | - | - |
| 1788216604 | 36.67° C | 33% | 1011.5 hPa | 0 mm | - | - | - |
| 1788216021 | 37.22° C | 32% | 1011.4 hPa | 0 mm | - | - | - |
| 1788215404 | 37.78° C | 32% | 1011.4 hPa | 0 mm | - | - | - |
| 1788214804 | 37.78° C | 31% | 1011.4 hPa | 0 mm | - | - | - |
* Rain latest hour (hover to see other rain measurements)
** Current wind speed in m/s (hover to see current wind gust speed)